This is the latest recevied weather packets stored in our database for station/object W8DRH-13. If no packets are shown the sender has not sent any weather packets the latest 10 day(s).
| Time | Temp. | Humidity | Pressure | Rain* | Wind** | Luminosity | Snow |
|---|---|---|---|---|---|---|---|
| 1778220847 | 8.89° C | 80% | 1011.7 hPa | 1.27 mm | - | 0 W/m² | - |
| 1778220543 | 8.89° C | 80% | 1011.7 hPa | 0 mm | - | 0 W/m² | - |
| 1778220241 | 8.89° C | 80% | 1011.8 hPa | 1.78 mm | - | 0 W/m² | - |
| 1778219941 | 9.44° C | 78% | 1012 hPa | 1.78 mm | - | 0 W/m² | - |
| 1778219639 | 9.44° C | 77% | 1011.8 hPa | 0 mm | - | 0 W/m² | - |
| 1778219335 | 9.44° C | 77% | 1011.8 hPa | 0 mm | - | 0 W/m² | - |
| 1778219032 | 9.44° C | 76% | 1011.7 hPa | 0 mm | - | 0 W/m² | - |
| 1778218729 | 9.44° C | 77% | 1011.9 hPa | 0 mm | - | 0 W/m² | - |
| 1778218427 | 9.44° C | 77% | 1011.9 hPa | 0 mm | - | 0 W/m² | - |
| 1778218124 | 9.44° C | 76% | 1012.1 hPa | 0 mm | - | 0 W/m² | - |
| 1778217822 | 9.44° C | 77% | 1012 hPa | 0 mm | - | 0 W/m² | - |
| 1778217517 | 9.44° C | 77% | 1011.9 hPa | 0 mm | - | 0 W/m² | - |
| 1778217213 | 9.44° C | 76% | 1011.6 hPa | 0 mm | - | 0 W/m² | - |
| 1778216909 | 9.44° C | 75% | 1011.6 hPa | 0 mm | - | 0 W/m² | - |
| 1778216302 | 9.44° C | 72% | 1011.1 hPa | 0 mm | - | 0 W/m² | - |
| 1778216000 | 9.44° C | 72% | 1011.1 hPa | 0 mm | - | 0 W/m² | - |
| 1778215698 | 9.44° C | 73% | 1010.8 hPa | 0 mm | - | 0 W/m² | - |
| 1778215394 | 9.44° C | 72% | 1010.5 hPa | 0 mm | - | 0 W/m² | - |
| 1778215090 | 9.44° C | 73% | 1010.8 hPa | 0 mm | - | 0 W/m² | - |
| 1778214788 | 10° C | 72% | 1011.1 hPa | 0 mm | - | 0 W/m² | - |
| 1778214484 | 10° C | 70% | 1011.1 hPa | 0 mm | - | 0 W/m² | - |
| 1778214182 | 10° C | 69% | 1011 hPa | 0 mm | - | 0 W/m² | - |
| 1778213878 | 10° C | 69% | 1010.8 hPa | 0 mm | - | 0 W/m² | - |
| 1778213575 | 10° C | 69% | 1010.9 hPa | 0 mm | - | 0 W/m² | - |
| 1778213271 | 9.44° C | 71% | 1011.4 hPa | 0 mm | - | 0 W/m² | - |
* Rain latest hour (hover to see other rain measurements)
** Current wind speed in m/s (hover to see current wind gust speed)